Location: Altleiningen
(49.5078°N, 8.0741°E)
Time: 00:09:49
(UTC+00:00)

SJ 16-02 - Pass Details

Date: 03 March 2021
Orbit: 605 x 617 km, 75.0° (Epoch: 13 April)

Event Time Altitude Azimuth Distance (km) Brightness Sun altitude
Rises 17:55:32 0° 351° (N) 2,884 4.9 -7.6°
Reaches altitude 10° 17:59:40 10° 29° (NNE) 1,977 3.7 -8.2°
Maximum altitude 18:00:48 11° 44° (NE) 1,921 3.5 -8.4°
Drops below altitude 10° 18:01:56 10° 59° (ENE) 1,976 3.4 -8.6°
Enters shadow 18:02:33 - 67° (ENE) 2,050 3.5 -8.7°
